Location: East Greenbush
(42.5909°N, 73.7018°W)
Time: 08:14:34
(UTC+00:00)

Daily predictions for brighter satellites

Satellite Brightness Start Highest point End
(mag) Time Altitude Azimuth Time Altitude Azimuth Time Altitude Azimuth
IRS-1C Rocket 4.2 21:50:08 10° SSE 21:55:18 58° ENE 22:00:30 10° N
Okean-O 3.4 21:55:43 10° SE 21:59:33 29° ENE 22:03:23 10° N
Cosmos 1538 Rocket 4.4 21:57:49 10° SSW 22:03:04 68° WNW 22:08:24 10° NNE
ASTEX 1 4.1 21:59:15 10° N 22:04:11 61° W 22:09:05 10° SSW
SeaSat 1 3.4 22:03:22 10° ESE 22:07:21 25° NE 22:11:22 10° N
Cosmos 1862 3.9 22:05:51 10° N 22:09:32 35° ENE 22:13:12 10° SE
BREEZE-M DEB (TANK) 4.2 22:08:10 10° WSW 22:11:58 79° NNW 22:24:52 11° ENE
Cosmos 1633 Rocket 3.6 22:08:24 10° N 22:12:31 37° ENE 22:16:38 10° SE
Cosmos 1151 Rocket 3.9 22:11:11 10° SSE 22:14:54 28° E 22:18:38 10° NNE
Cosmos 2034 Rocket 4.4 22:10:16 10° N 22:16:16 41° ENE 22:22:14 10° SE
Meteor 2-20 Rocket 4.4 22:11:01 10° S 22:17:07 75° E 22:23:16 10° NNE
Sich 1 3.0 22:13:42 10° N 22:18:04 73° E 22:22:27 10° SSE
Okean O Rocket 3.7 22:15:54 10° SSW 22:19:49 32° W 22:23:45 10° NNW
NOSS 2-3 (E) 3.6 22:16:37 10° SSW 22:20:53 77° SE 22:25:53 10° NE
Envisat 3.3 22:18:05 10° SE 22:22:51 43° ENE 22:27:39 10° N
USA 229 DEB 4.4 22:17:45 10° WSW 22:24:07 50° NW 22:30:49 10° NNE
USA 229 4.4 22:17:52 10° WSW 22:24:13 50° NW 22:30:54 10° NNE
SMAP 3.1 22:20:24 10° SSE 22:25:03 89° WSW 22:29:45 10° NNW
Cosmos 1328 Rocket 4.0 22:21:03 10° SSE 22:25:10 39° E 22:29:16 10° NNE
NOSS 3-1 (C) 4.2 22:21:59 10° WSW 22:27:21 47° NW 22:33:33 10° NNE
Cosmos 1633 2.4 22:23:53 10° N 22:27:32 75° E 22:31:09 10° SSE
Cosmos 1666 Rocket 3.5 22:23:37 10° N 22:27:58 67° E 22:32:15 10° SSE
NOSS 3-1 (A) 3.6 22:23:46 10° SW 22:29:14 69° NW 22:35:37 10° NNE
Cosmos 1515 Rocket 4.5 22:26:10 10° SSE 22:29:52 27° E 22:33:34 10° NNE
CSL-04 Rocket 4.5 22:25:32 10° ESE 22:29:58 27° ENE 22:34:23 10° N
NOSS 2-3 (D) 3.6 22:26:17 10° SSW 22:30:36 87° ESE 22:35:36 10° NE
CORIOLIS 4.1 22:25:42 10° SSE 22:31:06 85° ENE 22:36:35 10° NNW
COSMO-SKYMED 1 3.2 22:27:21 10° NNE 22:31:19 34° E 22:35:16 10° SSE
Cosmos 158 Rocket 4.2 22:36:27 10° S 22:41:31 49° ESE 22:46:27 10° NNE
Tsikada Rocket 4.3 22:36:32 10° SSE 22:42:34 47° E 22:48:40 10° NNE
SL-16 R/B 3.5 22:39:36 10° SE 22:43:22 19° E 22:43:56 18° E
Cosmos 1980 Rocket 2.2 22:38:02 10° S 22:43:36 63° ESE 22:49:14 10° NNE
COBE Rocket 3.8 22:38:51 10° N 22:43:37 86° WNW 22:48:16 10° SSW
H-2A R/B 3.4 22:40:43 10° S 22:44:28 57° W 22:48:14 10° NNW
GPS 2-04 Rocket1 4.1 22:44:56 10° SW 22:47:40 22° S 22:49:22 16° SE
Cosmos 1371 Rocket 4.0 22:42:58 10° NNW 22:48:06 58° ENE 22:53:11 10° SE
NOAA 12 4.1 22:44:38 10° SSE 22:49:58 88° WSW 22:55:21 10° NNW
Geosat 3.9 22:45:16 10° NNE 22:50:20 74° ESE 22:55:20 10° SSW
Cosmos 2322 Rocket 3.6 22:46:49 10° SE 22:49:59 18° ESE 22:49:59 18° ESE
Cosmos 2297 Rocket 4.0 22:46:25 10° NW 22:51:28 34° WSW 22:56:28 10° SSW
Cosmos 2227 Rocket 3.9 22:47:01 10° NW 22:52:10 36° WSW 22:57:16 10° S
YAOGAN 1 3.0 22:49:56 10° SE 22:53:55 38° ENE 22:57:56 10° N
CENTAUR R/B 4.4 22:50:47 10° NNW 22:55:55 19° NNE 22:58:47 16° NE
GEOS 3 Rocket 3.6 22:52:48 14° NE 22:57:21 87° NW 23:02:39 10° SW
Cosmos 1470 Rocket 3.5 22:54:50 10° N 22:59:19 66° E 23:03:45 10° SSE
Cosmos 2112 Rocket 4.2 22:55:10 10° SSW 23:00:21 74° WNW 23:05:36 10° NNE
Cosmos 1464 Rocket 4.4 22:55:57 10° NNW 23:02:02 65° W 23:08:05 10° S
YAOGAN 6 2.3 23:00:51 10° SSE 23:04:19 72° ENE 23:07:48 10° N
Ariane Rocket 4.2 23:07:23 23° NE 23:07:23 23° NE 23:10:09 10° N
Cosmos 1680 Rocket 4.1 23:01:01 10° SW 23:06:07 56° WNW 23:11:18 10° NNE
Cosmos 2263 Rocket 2.6 23:02:46 10° N 23:07:57 37° ENE 23:09:28 32° E
DELTA 2 R/B (1) 4.5 23:04:53 10° SW 23:09:54 35° SSE 23:11:54 27° ESE
APEX 3.8 23:12:08 10° SW 23:15:25 42° WNW 23:16:33 28° N
GENESIS II 4.2 23:13:39 10° SSW 23:17:38 71° ESE 23:18:20 56° ENE
ATLAS 3B R/B 4.3 23:14:18 10° NNW 23:18:02 15° NNE 23:18:48 15° NNE
SKYMED 2 3.8 23:15:13 10° N 23:19:33 71° WNW 23:23:52 10° SSW
COSMOS 2455 4.0 23:15:56 10° SSE 23:19:31 24° SE 23:19:31 24° SE
Cosmos 1697 Rocket 4.0 23:16:19 10° SW 23:21:32 38° WNW 23:26:47 10° N
CZ-4 R/B 1.5 23:20:31 10° S 23:24:39 75° WSW 23:28:43 10° NNW
FengYun 1-2 T 4.5 23:21:10 10° S 23:26:40 70° WSW 23:32:09 10° NNW
Lacrosse 4 Rocket 4.0 23:30:15 10° W 23:32:35 15° NW 23:34:55 10° N
Cosmos 2056 Rocket 4.0 23:34:29 10° NNW 23:39:33 59° WSW 23:44:39 10° S
Cosmos 1933 4.1 23:38:12 10° SSW 23:42:10 52° W 23:44:08 27° NNW
SeaSat 1 3.3 23:39:50 10° S 23:44:37 49° WSW 23:49:24 10° NW
Cosmos 1606 3.2 23:41:02 10° SSW 23:44:38 56° W 23:44:38 56° W
BREEZE-M R/B 4.2 23:52:32 10° SW 23:55:38 32° SSW 23:55:38 32° SSW
